Zurück zum Katalog

STARLINK-35242

AktivKommunikationVLEO
NORAD 65493·PAYLOAD·🇺🇸 United States

Gestartet Sep 5, 2025 von Cape Canaveral Space Force Station

Loading…

Nächste Überflüge (nächste 24 Stunden)

TLE

AktuellSource: CelesTrak SupGP

Epoche: Sep 15, 2026, 03:35 UTC

1 65493C 25198B   26258.14979167 -.00041935  00000+0 -12365-2 0  2589
2 65493  53.1574 106.4351 0001426  71.8685 206.9955 15.34473593    13

Verfolge STARLINK-35242 in Echtzeit mit AllMySat

Download on the App Store